Wind_Speed
7 8 9 10 11 12 13 14 14 15 15 15 16 15 15 14 13 10 7 3 1 4 7 9 11 12 13 13 12 12 10 9 7 5 4 2 1 1 2 2 3 4 5 5
8 8 8 9 11 13 14 13 13 14 14 16 14 14 13 13 11 9 7 4 2 2 5 8 9 10 10 12 13 11 9 7 6 5 4 2 1 1 2 2 3 4 4 5
7 8 8 10 11 13 14 14 13 14 14 14 13 12 12 11 9 8 6 5 3 3 4 6 7 9 10 11 12 11 8 8 6 4 3 2 1 1 2 3 3 4 4 5
8 8 8 10 12 14 14 14 13 13 13 12 12 11 10 10 9 8 6 5 4 5 4 4 6 9 11 12 12 10 9 8 6 5 4 3 2 2 2 3 3 4 4 4
10 9 9 10 12 14 14 14 13 12 11 11 11 11 10 9 8 7 6 5 5 5 4 5 7 9 10 11 11 10 9 7 6 5 4 3 3 2 3 3 3 3 3 4
11 10 10 12 13 14 14 13 12 12 11 10 10 10 9 7 7 6 4 4 4 4 5 5 7 9 9 10 9 8 7 7 6 5 4 3 3 3 3 3 3 3 3 4
12 11 12 14 15 14 14 13 13 12 10 9 9 8 8 7 6 5 3 3 3 3 4 5 5 7 7 7 7 7 7 6 6 5 4 4 4 4 4 4 4 4 4 5
14 13 14 16 15 15 14 13 14 13 11 9 8 8 7 7 6 5 4 3 1 1 1 2 3 4 5 5 6 6 6 6 5 5 5 4 4 5 5 5 5 6 6 7
15 14 15 16 15 14 14 13 14 15 13 11 9 8 8 8 7 7 6 5 4 3 2 2 2 3 4 5 5 6 6 6 6 6 6 6 6 6 6 6 7 8 9 10
16 15 14 14 13 14 15 15 15 16 16 13 9 7 8 8 8 8 7 7 6 5 5 5 5 5 5 6 7 7 8 8 8 8 8 7 7 7 8 8 9 10 11 12
16 16 14 13 13 14 16 16 16 16 16 14 10 8 9 9 9 9 8 8 8 7 7 8 8 8 8 8 9 9 10 10 10 10 10 10 9 9 10 11 12 13 14 15
16 15 14 13 13 14 16 17 17 17 16 15 13 9 10 10 10 10 10 10 10 10 10 10 10 10 10 10 11 11 11 11 12 12 12 12 12 13 13 14 16 17 17 18
14 13 12 12 13 14 15 17 18 18 17 16 14 11 11 12 11 11 11 11 11 12 12 12 12 12 12 12 12 13 13 13 13 14 14 15 15 16 17 18 19 20 21 22
15 14 14 13 14 14 16 18 19 18 18 17 15 13 13 14 13 13 13 13 13 13 13 13 13 13 13 13 13 14 15 15 16 16 17 17 18 19 20 21 22 23 24 25
16 16 15 15 15 16 17 18 19 18 18 18 16 16 15 15 15 14 14 14 15 14 14 14 14 14 14 14 15 15 16 17 18 18 19 20 20 21 23 24 25 27 28 29
17 17 17 17 17 19 18 18 19 19 19 18 18 17 16 16 17 17 16 16 16 15 15 15 15 15 15 15 16 17 18 19 20 20 21 22 23 24 25 27 28 29 30 31
19 19 18 18 19 20 19 19 20 20 19 18 19 18 18 18 18 18 18 18 18 18 17 17 17 17 17 17 18 19 21 21 22 23 24 25 26 27 28 30 31 32 34 35
20 19 19 20 20 21 19 18 19 19 19 19 19 20 20 21 20 20 21 21 20 20 20 19 19 19 19 20 20 22 23 24 25 25 26 28 29 30 31 32 33 35 37 38
20 20 21 21 22 20 19 20 21 22 21 20 20 20 21 21 21 22 23 22 22 22 22 22 23 22 22 22 23 24 26 27 28 28 30 31 32 33 35 36 36 38 40 41
21 21 22 22 22 21 19 20 21 23 22 21 21 20 20 22 23 22 22 22 23 23 24 25 25 24 24 25 26 27 29 30 31 32 32 34 35 37 39 40 40 41 43 45
21 21 21 21 21 21 20 21 21 22 21 20 20 20 19 20 22 22 21 22 22 23 23 25 26 25 25 27 28 30 31 32 34 35 35 36 38 40 42 43 44 45 46 47
21 21 21 21 21 20 20 20 21 21 20 20 19 19 20 21 22 21 21 21 21 21 23 24 25 27 28 28 30 32 33 35 36 37 38 39 41 42 44 46 46 48 49 50
22 22 22 21 21 21 21 21 21 21 20 20 20 20 21 22 22 23 22 21 22 22 24 25 26 28 30 31 32 34 36 37 38 40 41 43 44 45 46 48 49 50 51 52
24 24 24 23 22 23 22 22 21 21 21 22 22 23 23 23 22 21 21 21 22 23 25 26 28 30 31 33 34 36 38 40 41 42 44 45 46 48 49 50 51 52 53 54
25 25 24 24 24 24 23 23 23 23 23 23 23 23 22 21 21 22 23 24 25 26 27 29 30 32 33 35 37 38 40 42 43 44 46 47 48 50 51 52 54 55 56 58
25 25 25 25 25 25 25 26 26 25 25 24 24 24 24 25 25 25 26 27 27 29 30 31 33 34 36 37 39 40 42 43 45 46 48 49 51 52 54 55 56 58 60 61
Wind_Direction
297 307 314 321 325 328 330 332 334 336 334 334 335 336 337 342 346 348 347 343 230 200 198 195 194 199 201 195 189 187 196 201 212 223 231 248 279 320 344 343 345 347 345 341
286 294 306 317 324 330 328 329 329 331 333 335 335 337 337 343 350 357 6 19 27 178 188 192 199 203 203 195 187 183 185 190 195 209 221 222 229 295 328 335 337 335 334 333
270 287 297 311 318 327 328 327 326 328 332 333 333 336 337 344 351 360 10 20 39 128 162 180 194 195 192 188 180 179 181 182 186 194 199 210 245 286 315 322 323 327 329 330
261 275 295 313 318 325 327 328 324 325 329 336 338 341 340 349 355 3 10 22 66 105 127 154 175 174 176 171 170 173 176 176 181 187 201 222 247 271 299 313 325 335 339 341
260 276 295 310 320 327 326 328 329 329 330 331 335 339 342 349 358 5 17 38 74 94 107 127 149 160 166 166 167 170 172 174 182 193 209 224 241 265 288 303 317 328 335 342
259 275 297 308 312 319 322 321 326 329 324 322 326 330 333 341 352 3 10 29 61 83 92 108 135 145 149 157 165 171 174 179 189 202 213 226 242 264 279 291 303 313 321 329
257 275 294 304 308 309 314 314 319 326 325 324 321 321 320 329 339 349 355 11 45 65 87 105 128 145 150 161 171 178 180 189 199 211 220 233 246 260 272 283 293 300 304 308
267 279 295 301 302 305 309 310 312 317 316 317 313 314 309 312 323 330 329 326 324 45 122 131 139 153 161 170 179 186 193 205 215 224 231 241 252 263 270 279 288 296 299 301
276 287 293 296 299 302 305 306 306 306 308 306 304 300 298 298 302 306 305 299 289 271 244 211 197 192 194 200 207 214 220 226 232 236 239 247 257 267 275 283 290 295 297 298
280 291 290 287 294 300 304 303 301 301 303 303 300 289 288 287 290 293 290 282 276 270 259 248 242 239 235 232 232 234 235 238 241 243 246 252 262 272 281 288 291 295 297 298
277 285 286 282 288 296 304 304 299 297 297 296 291 283 283 284 280 286 287 280 274 268 259 254 249 246 242 240 239 239 240 242 244 246 251 257 265 274 282 287 291 293 296 297
275 284 281 281 285 293 302 304 299 294 294 288 283 277 271 275 276 275 275 273 274 271 263 257 253 249 245 243 242 242 245 247 250 252 255 261 268 275 281 285 288 290 292 294
277 285 283 280 285 293 303 306 300 292 291 287 281 278 269 267 270 268 271 272 272 271 267 261 255 253 251 250 248 248 249 251 254 256 260 264 270 275 279 283 285 288 290 291
274 281 283 282 286 291 297 302 301 292 286 286 284 276 271 271 272 271 272 272 269 269 265 258 253 252 253 252 251 252 253 255 257 260 263 267 272 276 279 282 285 287 289 290
278 277 279 281 285 290 294 299 301 296 289 284 283 276 272 273 274 270 269 270 268 268 264 258 254 253 254 255 255 256 258 259 261 264 267 270 274 277 280 282 284 287 288 290
277 278 278 280 283 287 292 294 297 298 292 286 281 276 273 274 273 270 268 270 268 265 263 259 257 257 257 259 261 262 264 265 267 270 272 275 277 279 281 282 284 286 288 289
274 276 277 279 281 284 291 295 295 296 293 290 283 277 272 274 274 271 270 269 266 263 263 260 257 258 259 261 265 267 269 271 273 276 278 280 281 282 283 284 286 287 288 288
272 273 275 279 281 282 292 291 292 294 294 292 288 278 274 274 273 273 273 269 269 263 261 260 257 258 262 265 269 272 274 276 277 279 282 284 285 285 286 287 288 289 289 290
269 272 274 279 282 285 287 288 287 289 289 288 287 280 274 274 273 273 270 264 264 262 258 260 261 260 264 267 271 275 276 278 279 281 283 285 287 288 288 288 289 290 290 291
267 271 274 279 281 284 290 289 289 289 289 285 284 281 275 271 269 271 267 264 260 259 262 262 263 264 267 271 274 276 279 279 279 282 284 285 287 288 288 288 288 288 288 288
267 269 273 277 280 284 288 289 291 292 292 288 286 281 277 275 267 266 265 262 260 259 265 267 265 267 270 274 276 279 280 282 284 284 284 284 285 286 287 287 286 286 287 288
264 268 271 275 279 282 285 286 288 290 289 288 286 282 279 276 271 268 267 264 264 265 267 270 271 272 273 275 278 279 280 281 282 283 283 284 284 284 284 285 285 285 286 286
264 266 269 272 276 279 282 285 289 289 287 287 286 283 283 279 275 273 270 267 267 269 272 272 274 275 276 277 278 280 282 283 283 284 285 285 286 286 286 286 286 286 286 286
263 266 267 271 274 277 281 284 287 286 286 284 282 281 280 281 276 273 272 273 274 275 276 277 278 279 280 282 283 284 285 285 286 286 287 287 287 288 288 288 287 287 287 287
265 265 267 269 273 276 279 282 283 283 282 281 281 280 280 276 275 276 277 279 280 281 281 281 282 284 285 286 286 286 287 287 288 288 289 289 289 289 289 289 289 289 288 288
264 265 267 269 272 274 277 279 280 279 278 277 277 278 277 276 277 277 278 278 280 283 284 285 286 287 287 288 288 289 289 289 289 290 290 290 290 290 290 289 289 289 289 289
Height
5880 5881 5880 5879 5877 5875 5873 5870 5867 5864 5861 5858 5854 5851 5848 5845 5841 5839 5837 5835 5835 5835 5836 5838 5840 5842 5844 5847 5849 5853 5856 5858 5860 5862 5863 5864 5864 5865 5865 5865 5865 5865 5865 5864
5880 5880 5879 5877 5876 5874 5871 5868 5866 5863 5860 5857 5854 5851 5848 5845 5842 5840 5838 5836 5835 5835 5836 5837 5839 5841 5843 5846 5848 5852 5854 5857 5859 5861 5862 5863 5863 5864 5864 5864 5864 5864 5864 5864
5878 5879 5877 5876 5874 5872 5870 5867 5864 5862 5860 5857 5855 5852 5849 5846 5843 5842 5840 5838 5836 5835 5837 5838 5839 5841 5843 5845 5848 5851 5853 5856 5858 5860 5861 5862 5862 5863 5863 5864 5864 5863 5863 5863
5876 5876 5875 5874 5872 5870 5868 5866 5863 5861 5859 5857 5855 5853 5850 5847 5845 5843 5841 5840 5838 5837 5837 5837 5838 5840 5842 5845 5848 5851 5853 5855 5857 5859 5860 5861 5861 5862 5862 5863 5863 5863 5862 5862
5875 5874 5873 5872 5870 5868 5866 5864 5862 5860 5858 5857 5855 5853 5852 5849 5847 5845 5843 5842 5840 5839 5839 5839 5839 5841 5843 5846 5849 5851 5853 5855 5857 5858 5859 5860 5860 5861 5861 5862 5862 5862 5861 5861
5873 5872 5871 5870 5868 5866 5864 5863 5861 5859 5858 5857 5855 5854 5852 5850 5849 5848 5846 5844 5843 5842 5841 5841 5841 5843 5844 5847 5849 5851 5853 5854 5856 5858 5858 5859 5859 5860 5860 5860 5860 5861 5860 5860
5871 5870 5869 5867 5866 5865 5863 5861 5860 5859 5857 5857 5855 5854 5853 5851 5850 5849 5848 5847 5845 5844 5843 5843 5844 5845 5846 5848 5849 5851 5853 5854 5856 5857 5857 5858 5858 5859 5859 5859 5859 5859 5859 5858
5868 5868 5867 5865 5864 5862 5861 5860 5859 5858 5857 5856 5855 5853 5853 5852 5850 5849 5849 5848 5847 5846 5845 5845 5846 5846 5847 5848 5850 5851 5852 5854 5855 5856 5856 5857 5857 5858 5858 5858 5857 5857 5856 5856
5864 5864 5864 5862 5861 5860 5858 5857 5857 5856 5855 5854 5853 5853 5852 5851 5850 5849 5849 5848 5847 5847 5846 5846 5846 5846 5847 5848 5849 5850 5851 5852 5853 5854 5855 5855 5856 5856 5856 5855 5855 5854 5854 5853
5860 5860 5860 5859 5858 5857 5856 5855 5854 5853 5852 5851 5852 5851 5851 5850 5850 5849 5848 5847 5847 5846 5846 5846 5846 5846 5846 5847 5848 5849 5850 5851 5852 5852 5853 5853 5853 5853 5853 5853 5852 5852 5851 5850
5856 5857 5856 5855 5855 5854 5853 5852 5850 5849 5849 5849 5849 5852 5850 5849 5848 5848 5847 5846 5846 5846 5845 5845 5845 5845 5845 5846 5847 5848 5848 5849 5850 5850 5850 5850 5850 5850 5850 5849 5849 5848 5847 5846
5852 5852 5852 5852 5852 5851 5849 5848 5847 5847 5846 5846 5846 5850 5847 5847 5846 5846 5845 5845 5844 5844 5844 5843 5843 5844 5844 5844 5845 5845 5846 5846 5846 5847 5847 5847 5847 5846 5846 5845 5844 5843 5842 5841
5848 5849 5848 5849 5850 5848 5846 5844 5843 5843 5842 5842 5843 5847 5844 5844 5844 5844 5843 5843 5842 5842 5841 5841 5841 5841 5841 5842 5842 5842 5842 5843 5843 5843 5843 5842 5842 5842 5841 5840 5839 5838 5837 5835
5844 5845 5846 5846 5844 5844 5843 5841 5840 5839 5839 5839 5839 5841 5841 5841 5841 5841 5841 5841 5840 5839 5839 5838 5838 5838 5838 5839 5839 5839 5839 5839 5839 5838 5838 5838 5837 5836 5835 5834 5833 5832 5830 5829
5840 5840 5840 5840 5839 5839 5838 5838 5836 5835 5835 5835 5836 5836 5837 5837 5837 5837 5838 5837 5837 5836 5836 5835 5835 5835 5835 5835 5835 5835 5835 5834 5834 5833 5832 5832 5831 5830 5829 5828 5826 5825 5823 5821
5834 5835 5835 5835 5834 5834 5834 5833 5833 5831 5831 5830 5831 5832 5832 5833 5833 5833 5833 5833 5833 5832 5832 5832 5831 5831 5831 5831 5831 5830 5830 5829 5828 5827 5826 5825 5824 5823 5822 5820 5818 5816 5815 5813
5829 5830 5830 5830 5829 5828 5829 5830 5828 5828 5827 5826 5826 5828 5827 5827 5828 5828 5828 5828 5828 5827 5827 5827 5827 5827 5826 5826 5825 5824 5823 5823 5822 5821 5820 5818 5817 5815 5814 5812 5810 5808 5806 5803
5824 5824 5824 5825 5825 5824 5827 5824 5823 5823 5822 5821 5821 5821 5821 5822 5822 5822 5822 5822 5822 5822 5821 5821 5821 5821 5820 5820 5819 5818 5817 5816 5815 5813 5812 5810 5809 5807 5805 5803 5801 5799 5796 5794
5818 5819 5819 5819 5818 5819 5820 5819 5818 5817 5817 5816 5815 5815 5815 5815 5816 5815 5815 5815 5815 5815 5815 5815 5815 5814 5814 5813 5812 5811 5810 5808 5807 5805 5804 5802 5800 5799 5796 5794 5792 5789 5787 5785
5813 5813 5814 5813 5813 5813 5815 5814 5811 5812 5810 5810 5809 5808 5808 5808 5809 5809 5808 5808 5807 5808 5807 5807 5807 5807 5806 5805 5804 5803 5802 5800 5799 5797 5795 5793 5791 5789 5786 5784 5781 5779 5776 5774
5806 5807 5807 5807 5806 5807 5808 5807 5806 5806 5806 5804 5802 5802 5802 5802 5802 5801 5800 5800 5800 5800 5800 5800 5799 5799 5798 5798 5797 5795 5793 5791 5790 5788 5786 5783 5781 5779 5776 5773 5770 5767 5764 5761
5800 5801 5801 5801 5801 5803 5801 5801 5801 5800 5798 5797 5796 5795 5795 5795 5794 5794 5793 5793 5792 5792 5792 5791 5791 5790 5790 5789 5788 5786 5784 5782 5780 5778 5775 5773 5770 5767 5764 5761 5758 5755 5752 5748
5793 5795 5795 5796 5797 5796 5795 5795 5794 5793 5792 5790 5790 5789 5788 5787 5787 5786 5786 5785 5785 5785 5784 5783 5783 5782 5781 5779 5778 5776 5774 5771 5769 5766 5764 5761 5758 5755 5752 5748 5745 5741 5737 5734
5787 5787 5788 5789 5789 5789 5789 5788 5787 5786 5786 5784 5783 5783 5782 5781 5780 5779 5779 5778 5778 5777 5777 5776 5775 5773 5771 5770 5767 5765 5763 5760 5757 5754 5751 5748 5744 5741 5737 5733 5730 5726 5722 5718
5780 5781 5781 5782 5783 5782 5782 5781 5781 5780 5779 5778 5777 5776 5775 5774 5773 5773 5772 5772 5771 5770 5769 5767 5765 5763 5761 5759 5756 5754 5751 5748 5745 5741 5738 5734 5731 5727 5723 5718 5714 5709 5705 5700
5773 5774 5774 5775 5775 5775 5775 5774 5773 5773 5772 5771 5770 5769 5768 5767 5766 5766 5765 5764 5763 5761 5759 5757 5755 5753 5751 5748 5745 5742 5739 5736 5732 5729 5725 5721 5716 5712 5708 5703 5699 5693 5688 5682